Погода в Холодногорском

Россия / Ставропольский край     44°57′25″N   42°06′04″E
темп.,
°C
ветер,
м/с
пор.,
м/с
влажн.,
%
обл.,
%
осадки,
мм/ч
давл.,
гПа
погр.,
м
17 сентября, пт
пт1700:00+11в4886100 1.5 1017312
03:00+11в3589100 3.1 1017245
06:00+11в3888100 0.4 1017339
09:00+12в51086100 0.4 1016426
12:00+12в6108298 0.0 1016599
15:00+14всв697073 0.0 1016456
18:00+14в510697 0.0 1016375
21:00+11вюв37801 0.0 1016147
18 сентября, сб
сб1800:00+10вюв23800 0.0 101638
03:00+9юв22810 0.0 101615
06:00+9ю228515 0.0 101612
09:00+16ююз126215 0.0 1016369
12:00+21ю114671 0.0 10141119
15:00+23с013650 0.0 10131531
18:00+19св1147100 0.0 101411
21:00+16юв376693 0.0 1014185
19 сентября, вс
вс1900:00+16юв3970100 0.0 1014335
03:00+14юв3877100 0.0 1014247
06:00+13юв388638 0.0 1014199
09:00+18юв566985 0.0 1014421
12:00+22юв555257 0.0 1013875
15:00+24юв3344100 0.0 10121593
18:00+21юв3558100 0.1 101393
21:00+17сз3582100 1.3 1014195
20 сентября, пн
пн2000:00+15с1292100 1.3 1014154
03:00+15вюв119463 1.6 101416
06:00+14ю229384 0.0 101418
09:00+20вюв2365100 0.0 1013432
12:00+22вюв335098 0.0 10131154
15:00+23в3345100 0.0 10121341
18:00+20сз2360100 0.3 101273
21:00+16юз1292100 5.8 1015105
21 сентября, вт
вт2100:00+16зюз229144 4.2 101619
03:00+15з249166 4.3 1016100
06:00+14зюз358834 0.0 1017203
09:00+17зюз3578100 0.0 1018469
12:00+17з347696 0.0 1017627
15:00+20сз4364100 0.1 10161123
18:00+16сз227788 0.1 101642
21:00+16св1177100 0.2 101516